Weather History for Lampasas, TX

Change the Weather History Date:

Wednesday, November 21, 2012

  Actual Average (KGRK) Record (KGRK)
Temperature  
Mean Temperature 65 °F -  
Max Temperature 77 °F 65 °F 80 °F (1999)
Min Temperature 53 °F 45 °F 33 °F (2000)
Growing Degree Days 15 (Base 50)    
Moisture  
Dew Point 49 °F    
Average Humidity 60    
Maximum Humidity 94    
Minimum Humidity 32    
Precipitation  
Precipitation 0.00 in - - ()
Sea Level Pressure  
Sea Level Pressure 30.19 in    
Wind  
Wind Speed 1 mph (SSE)    
Max Wind Speed 9 mph    
Max Gust Speed 16 mph    
Visibility 10 miles    
Events      
Averages and records for this station are not official NWS values.
T = Trace of Precipitation, MM = Missing Value Source: NWS Daily Summary

Daily Weather History Graph

Daily Weather History Graph

Search for Another Location

Airport:

Trip Planner

Search our weather history database for the weather conditions in past years. The results will help you decide how hot, cold, wet, or windy it might be!

Date:

Astronomy

Nov. 21, 2012 Rise Set
Actual Time 7:05 AM CST 5:31 PM CST
Civil Twilight 6:39 AM CST 5:57 PM CST
Nautical Twilight 6:10 AM CST 6:27 PM CST
Astronomical Twilight 5:41 AM CST 6:56 PM CST
Moon 1:27 PM CST (11/21) 12:50 AM CST (11/21)
Length of Visible Light 11h 18m
Length of Day
10h 26m
First Quarter, 62% of the Moon is Illuminated
Nov 21
First Quarter
Nov 28
Full
Dec 6
Last Quarter
Dec 13
New
Dec 19
First Quarter

Hourly Weather History & Observations

Time (CST) Temp. Dew Point Humidity Pressure Visibility Wind Dir Wind Speed Gust Speed Precip Events Conditions
12:15 AM 57.2 °F 50.0 °F 77% 30.20 in 10.0 mi Calm Calm - N/A   Clear
12:35 AM 59.0 °F 50.0 °F 72% 30.20 in 10.0 mi Calm Calm - N/A   Clear
12:55 AM 59.0 °F 50.0 °F 72% 30.20 in 10.0 mi Calm Calm - N/A   Clear
1:15 AM 59.0 °F 50.0 °F 72% 30.20 in 10.0 mi Calm Calm - N/A   Clear
1:35 AM 60.8 °F 51.8 °F 72% 30.20 in 10.0 mi Calm Calm - N/A   Clear
1:55 AM 59.0 °F 51.8 °F 77% 30.20 in 10.0 mi Calm Calm - N/A   Mostly Cloudy
2:15 AM 57.2 °F 50.0 °F 77% 30.20 in 10.0 mi Calm Calm - N/A   Mostly Cloudy
2:35 AM 60.8 °F 51.8 °F 72% 30.20 in 10.0 mi Calm Calm - N/A   Scattered Clouds
2:55 AM 60.8 °F 51.8 °F 72% 30.20 in 10.0 mi Calm Calm - N/A   Scattered Clouds
3:15 AM 57.2 °F 50.0 °F 77% 30.20 in 10.0 mi Calm Calm - N/A   Scattered Clouds
3:35 AM 59.0 °F 51.8 °F 77% 30.20 in 10.0 mi Calm Calm - N/A   Scattered Clouds
3:55 AM 57.2 °F 50.0 °F 77% 30.20 in 10.0 mi Calm Calm - N/A   Scattered Clouds
4:15 AM 59.0 °F 51.8 °F 77% 30.20 in 10.0 mi Calm Calm - N/A   Mostly Cloudy
4:35 AM 57.2 °F 51.8 °F 82% 30.20 in 10.0 mi Calm Calm - N/A   Mostly Cloudy
4:55 AM 55.4 °F 51.8 °F 88% 30.20 in 10.0 mi Calm Calm - N/A   Scattered Clouds
5:15 AM 57.2 °F 51.8 °F 82% 30.20 in 10.0 mi Calm Calm - N/A   Scattered Clouds
5:35 AM 57.2 °F 51.8 °F 82% 30.20 in 10.0 mi Calm Calm - N/A   Clear
5:55 AM 55.4 °F 51.8 °F 88% 30.21 in 10.0 mi Calm Calm - N/A   Clear
6:15 AM 53.6 °F 50.0 °F 88% 30.22 in 10.0 mi Calm Calm - N/A   Clear
6:35 AM 55.4 °F 50.0 °F 82% 30.22 in 10.0 mi Calm Calm - N/A   Clear
6:55 AM 53.6 °F 50.0 °F 88% 30.23 in 10.0 mi Calm Calm - N/A   Clear
7:15 AM 53.6 °F 50.0 °F 88% 30.23 in 10.0 mi Calm Calm - N/A   Scattered Clouds
7:35 AM 53.6 °F 51.8 °F 94% 30.24 in 10.0 mi Calm Calm - N/A   Scattered Clouds
7:55 AM 57.2 °F 53.6 °F 88% 30.24 in 10.0 mi Calm Calm - N/A   Clear
8:15 AM 60.8 °F 53.6 °F 77% 30.25 in 10.0 mi Calm Calm - N/A   Clear
8:35 AM 62.6 °F 55.4 °F 77% 30.25 in 10.0 mi Calm Calm - N/A   Clear
8:55 AM 62.6 °F 53.6 °F 72% 30.25 in 10.0 mi Calm Calm - N/A   Clear
9:15 AM 64.4 °F 53.6 °F 68% 30.25 in 10.0 mi Calm Calm - N/A   Clear
9:35 AM 64.4 °F 55.4 °F 73% 30.26 in 10.0 mi Calm Calm - N/A   Clear
9:55 AM 68.0 °F 55.4 °F 64% 30.26 in 10.0 mi Calm Calm - N/A   Clear
10:15 AM 69.8 °F 57.2 °F 64% 30.26 in 10.0 mi Calm Calm - N/A   Clear
10:35 AM 69.8 °F 55.4 °F 60% 30.26 in 10.0 mi Calm Calm - N/A   Clear
10:55 AM 71.6 °F 55.4 °F 57% 30.26 in 10.0 mi Calm Calm - N/A   Clear
11:15 AM 75.2 °F 55.4 °F 50% 30.24 in 10.0 mi Calm Calm - N/A   Clear
11:35 AM 75.2 °F 53.6 °F 47% 30.24 in 10.0 mi SSW 4.6 mph - N/A   Clear
11:55 AM 75.2 °F 51.8 °F 44% 30.23 in 10.0 mi South 8.1 mph - N/A   Scattered Clouds
12:15 PM 75.2 °F 51.8 °F 44% 30.22 in 10.0 mi South 3.5 mph - N/A   Scattered Clouds
12:35 PM 75.2 °F 50.0 °F 41% 30.21 in 10.0 mi Calm Calm - N/A   Mostly Cloudy
12:55 PM 75.2 °F 48.2 °F 38% 30.20 in 10.0 mi East 5.8 mph - N/A   Scattered Clouds
1:15 PM 75.2 °F 48.2 °F 38% 30.19 in 10.0 mi East 6.9 mph - N/A   Mostly Cloudy
1:35 PM 77.0 °F 44.6 °F 32% 30.18 in 10.0 mi South 5.8 mph - N/A   Scattered Clouds
1:55 PM 77.0 °F 44.6 °F 32% 30.18 in 10.0 mi South 6.9 mph - N/A   Scattered Clouds
2:15 PM 77.0 °F 46.4 °F 34% 30.17 in 10.0 mi South 9.2 mph - N/A   Scattered Clouds
2:35 PM 77.0 °F 46.4 °F 34% 30.16 in 10.0 mi South 9.2 mph - N/A   Mostly Cloudy
2:55 PM 77.0 °F 46.4 °F 34% 30.16 in 10.0 mi SE 8.1 mph - N/A   Scattered Clouds
3:15 PM 77.0 °F 44.6 °F 32% 30.16 in 10.0 mi SSE 5.8 mph - N/A   Scattered Clouds
3:35 PM 77.0 °F 44.6 °F 32% 30.16 in 10.0 mi SE 6.9 mph - N/A   Clear
3:55 PM 77.0 °F 44.6 °F 32% 30.16 in 10.0 mi SE 5.8 mph - N/A   Scattered Clouds
4:15 PM 77.0 °F 44.6 °F 32% 30.15 in 10.0 mi SE 4.6 mph - N/A   Scattered Clouds
4:35 PM 77.0 °F 44.6 °F 32% 30.15 in 10.0 mi SE 6.9 mph - N/A   Scattered Clouds
4:55 PM 77.0 °F 44.6 °F 32% 30.15 in 10.0 mi South 6.9 mph 16.1 mph N/A   Mostly Cloudy
5:15 PM 75.2 °F 44.6 °F 34% 30.15 in 10.0 mi SSE 6.9 mph - N/A   Mostly Cloudy
5:35 PM 75.2 °F 44.6 °F 34% 30.15 in 10.0 mi South 4.6 mph - N/A   Mostly Cloudy
5:55 PM 71.6 °F 44.6 °F 38% 30.16 in 10.0 mi SSE 4.6 mph - N/A   Scattered Clouds
6:15 PM 69.8 °F 44.6 °F 40% 30.16 in 10.0 mi Calm Calm - N/A   Clear
6:35 PM 69.8 °F 46.4 °F 43% 30.16 in 10.0 mi South 3.5 mph - N/A   Clear
6:55 PM 68.0 °F 44.6 °F 43% 30.17 in 10.0 mi South 3.5 mph - N/A   Clear
7:15 PM 68.0 °F 46.4 °F 46% 30.17 in 10.0 mi South 3.5 mph - N/A   Clear
7:35 PM 64.4 °F 44.6 °F 49% 30.17 in 10.0 mi Calm Calm - N/A   Clear
7:55 PM 64.4 °F 44.6 °F 49% 30.17 in 10.0 mi Calm Calm - N/A   Clear
8:15 PM 62.6 °F 44.6 °F 52% 30.17 in 10.0 mi Calm Calm - N/A   Clear
8:35 PM 62.6 °F 46.4 °F 55% 30.17 in 10.0 mi Calm Calm - N/A   Clear
8:55 PM 60.8 °F 46.4 °F 59% 30.17 in 10.0 mi Calm Calm - N/A   Clear
9:15 PM 60.8 °F 46.4 °F 59% 30.17 in 10.0 mi SW 3.5 mph - N/A   Clear
9:35 PM 60.8 °F 46.4 °F 59% 30.17 in 10.0 mi Calm Calm - N/A   Clear
9:55 PM 60.8 °F 48.2 °F 63% 30.17 in 10.0 mi Calm Calm - N/A   Clear
10:15 PM 59.0 °F 48.2 °F 67% 30.16 in 10.0 mi Calm Calm - N/A   Clear
10:35 PM 57.2 °F 46.4 °F 67% 30.16 in 10.0 mi Calm Calm - N/A   Clear
10:55 PM 57.2 °F 48.2 °F 72% 30.15 in 10.0 mi Calm Calm - N/A   Clear
11:15 PM 57.2 °F 46.4 °F 67% 30.15 in 10.0 mi Calm Calm - N/A   Clear
11:35 PM 57.2 °F 46.4 °F 67% 30.14 in 10.0 mi Calm Calm - N/A   Clear
11:55 PM 57.2 °F 46.4 °F 67% 30.14 in 10.0 mi Calm Calm - N/A   Clear